This is the latest recevied weather packets stored in our database for station/object KC9DK. If no packets are shown the sender has not sent any weather packets the latest 10 day(s).
| Time | Temp. | Humidity | Pressure | Rain* | Wind** | Luminosity | Snow |
|---|---|---|---|---|---|---|---|
| 1778334677 | 18.33° C | 82% | 1010.4 hPa | 0 mm | - | 428 W/m² | - |
| 1778334373 | 18.33° C | 78% | 1010.3 hPa | 0 mm | - | 417 W/m² | - |
| 1778334071 | 18.33° C | 79% | 1010.3 hPa | 0 mm | - | 399 W/m² | - |
| 1778333768 | 17.78° C | 81% | 1010.2 hPa | 0 mm | - | 374 W/m² | - |
| 1778333465 | 17.78° C | 80% | 1010.2 hPa | 0 mm | - | 333 W/m² | - |
| 1778333163 | 17.78° C | 80% | 1010.3 hPa | 0 mm | - | 231 W/m² | - |
| 1778332862 | 17.22° C | 81% | 1010.2 hPa | 0 mm | - | 276 W/m² | - |
| 1778332557 | 17.22° C | 82% | 1010.2 hPa | 0 mm | - | 280 W/m² | - |
| 1778332254 | 17.78° C | 80% | 1010.1 hPa | 0 mm | - | 167 W/m² | - |
| 1778331950 | 17.78° C | 82% | 1010 hPa | 0 mm | - | 240 W/m² | - |
| 1778331647 | 17.22° C | 86% | 1010.3 hPa | 0 mm | - | 205 W/m² | - |
| 1778331343 | 16.67° C | 87% | 1010.2 hPa | 0 mm | - | 180 W/m² | - |
| 1778331040 | 16.11° C | 87% | 1010.2 hPa | 0 mm | - | 161 W/m² | - |
| 1778330737 | 16.11° C | 87% | 1010.2 hPa | 0 mm | - | 148 W/m² | - |
| 1778330434 | 16.11° C | 89% | 1010.2 hPa | 0 mm | - | 127 W/m² | - |
| 1778330132 | 15.56° C | 94% | 1010 hPa | 0 mm | - | 109 W/m² | - |
| 1778329828 | 15° C | 96% | 1010.1 hPa | 0 mm | - | 99 W/m² | - |
| 1778329524 | 15° C | 97% | 1010 hPa | 0 mm | - | 91 W/m² | - |
| 1778329221 | 14.44° C | 97% | 1010 hPa | 0 mm | - | 83 W/m² | - |
| 1778328918 | 15° C | 97% | 1010.1 hPa | 0 mm | - | 78 W/m² | - |
| 1778328616 | 14.44° C | 97% | 1009.9 hPa | 0 mm | - | 76 W/m² | - |
| 1778328314 | 13.33° C | 97% | 1010 hPa | 0 mm | - | 60 W/m² | - |
| 1778328012 | 12.78° C | 97% | 1009.8 hPa | 0 mm | - | 61 W/m² | - |
| 1778327708 | 12.78° C | 97% | 1009.8 hPa | 0 mm | - | 37 W/m² | - |
| 1778327406 | 12.78° C | 97% | 1009.7 hPa | 0 mm | - | 34 W/m² | - |
* Rain latest hour (hover to see other rain measurements)
** Current wind speed in m/s (hover to see current wind gust speed)